カタログに戻る

THOR ABLESTAR DEB

運用中LEO
NORAD 130·DEBRIS·🇺🇸 United States

打ち上げ Jun 29, 1961 から Cape Canaveral Space Force Station

Loading…

次のパス (今後24時間)

TLE

最新Source: Space-Track

元期: Sep 10, 2026, 17:18 UTC

1 00130U 61015Q   26253.72102376 -.00000011  00000-0  45265-4 0  9992
2 00130  66.7714  39.6020 0091018 232.4377 126.8413 13.99443380323427

AllMySatでTHOR ABLESTAR DEBをリアルタイム追跡

Download on the App Store